GW0202 Weather Reports


time (UTC)temp
C
wind
direction
speed
KPH
gust
KPH
rain 1hr
cm
rain 24hr
cm
rain mn
cm
humidity
%
barometer
mb
20260504232047 13 40 0.0 3.2 0.00 0.10 0.10 69 1005.8
20260504231543 15 326 0.0 1.6 0.00 0.10 0.10 66 1005.6
20260504231039 15 1 0.0 1.6 0.00 0.10 0.10 66 1005.6
20260504230535 16 151 0.0 1.6 0.00 0.10 0.10 60 1005.5
20260504230035 17 122 0.0 1.6 0.00 0.10 0.10 57 1005.5
20260504225531 17 6 0.0 3.2 0.00 0.10 0.10 55 1005.4
20260504225028 17 38 1.6 3.2 0.00 0.10 0.10 51 1005.4
20260504224525 17 64 3.2 3.2 0.00 0.10 0.10 51 1005.4
20260504224022 17 50 3.2 4.8 0.00 0.10 0.10 52 1005.5
20260504223519 17 200 3.2 6.4 0.00 0.10 0.10 51 1005.5
20260504223015 18 48 3.2 4.8 0.00 0.10 0.10 51 1005.4
20260504222512 18 1 0.0 3.2 0.00 0.10 0.10 49 1005.5
20260504222009 18 244 1.6 6.4 0.00 0.10 0.10 52 1005.5
20260504221506 17 279 0.0 6.4 0.00 0.10 0.10 52 1005.6
20260504221003 18 231 6.4 6.4 0.00 0.10 0.10 50 1005.6
20260504220459 17 81 1.6 8.0 0.00 0.10 0.10 53 1005.4
20260504215956 17 196 3.2 6.4 0.00 0.10 0.10 51 1005.5
20260504215453 17 238 1.6 6.4 0.00 0.10 0.10 53 1005.6
20260504214950 17 9 3.2 9.7 0.00 0.10 0.10 52 1005.5
20260504214446 17 228 3.2 14.5 0.00 0.10 0.10 52 1005.3
20260504213943 17 114 0.0 9.7 0.00 0.10 0.10 54 1005.4
20260504213439 17 309 4.8 8.0 0.00 0.10 0.10 53 1005.5
20260504212937 17 71 3.2 8.0 0.00 0.10 0.10 53 1005.4
20260504212432 16 340 6.4 6.4 0.00 0.10 0.10 55 1005.5
20260504211930 16 332 3.2 8.0 0.00 0.10 0.10 56 1005.6
20260504211426 16 303 6.4 6.4 0.00 0.10 0.10 56 1005.6
20260504210924 16 356 4.8 8.0 0.00 0.10 0.10 55 1005.6
20260504210420 17 0 3.2 11.3 0.00 0.10 0.10 54 1005.5
20260504205918 17 240 6.4 14.5 0.00 0.10 0.10 54 1005.4
20260504205415 17 201 3.2 19.3 0.00 0.10 0.10 54 1005.4
20260504204913 17 286 8.0 17.7 0.00 0.10 0.10 53 1005.4
20260504204411 17 299 8.0 11.3 0.00 0.10 0.10 55 1005.3
20260504203911 17 265 11.3 14.5 0.00 0.10 0.10 54 1005.4
20260504203407 17 178 6.4 12.9 0.00 0.10 0.10 55 1005.5
20260504202903 16 335 12.9 22.5 0.00 0.10 0.10 55 1005.4
20260504202400 16 233 8.0 8.0 0.00 0.10 0.10 57 1005.5
20260504201856 16 125 6.4 9.7 0.00 0.10 0.10 58 1005.5
20260504201354 16 253 9.7 14.5 0.00 0.10 0.10 57 1005.4
20260504200851 16 93 6.4 14.5 0.00 0.10 0.10 58 1005.2
20260504200348 16 353 8.0 29.0 0.00 0.10 0.10 59 1005.5
20260504195844 16 246 16.1 20.9 0.00 0.10 0.10 57 1005.0
20260504195340 17 212 9.7 19.3 0.00 0.10 0.10 55 1005.2
20260504194837 17 282 4.8 16.1 0.00 0.10 0.10 59 1005.1
20260504194333 17 233 6.4 11.3 0.00 0.10 0.10 57 1005.3
20260504193829 16 275 8.0 17.7 0.00 0.10 0.10 59 1005.4
20260504193327 16 196 14.5 20.9 0.00 0.10 0.10 58 1005.3
20260504192825 16 310 17.7 20.9 0.00 0.10 0.10 61 1005.4
20260504192323 16 327 4.8 29.0 0.00 0.10 0.10 62 1005.6
20260504191821 16 331 16.1 27.4 0.00 0.10 0.10 62 1005.5
20260504191318 16 235 8.0 12.9 0.00 0.10 0.10 63 1005.6
20260504190814 16 0 8.0 14.5 0.00 0.10 0.10 65 1005.5
20260504190310 15 240 1.6 11.3 0.00 0.10 0.10 67 1005.7
20260504185806 15 312 6.4 16.1 0.00 0.10 0.10 68 1005.7
20260504185304 15 325 4.8 17.7 0.00 0.10 0.10 68 1005.6
20260504184759 15 78 1.6 9.7 0.00 0.10 0.10 70 1005.7
20260504184255 14 290 4.8 17.7 0.00 0.10 0.10 70 1005.8
20260504183751 15 257 6.4 16.1 0.00 0.10 0.10 71 1005.8
20260504183248 15 257 0.0 22.5 0.00 0.10 0.10 74 1006.0
20260504182747 15 248 4.8 6.4 0.00 0.10 0.10 74 1005.9
20260504182243 14 25 4.8 6.4 0.00 0.10 0.10 78 1005.9
20260504181741 12 341 6.4 9.7 0.00 0.10 0.10 80 1005.9
20260504181238 12 31 1.6 4.8 0.00 0.10 0.10 81 1005.9
20260504180737 12 130 0.0 8.0 0.00 0.10 0.10 84 1005.9
20260504180236 11 209 4.8 8.0 0.00 0.10 0.10 83 1006.0
20260504175733 12 10 3.2 9.7 0.00 0.10 0.10 85 1006.2
20260504175229 11 196 3.2 8.0 0.00 0.10 0.10 88 1006.2
20260504174727 11 46 3.2 6.4 0.00 0.10 0.10 90 1006.2
20260504174225 10 72 3.2 6.4 0.00 0.10 0.10 91 1006.1
20260504173721 10 243 1.6 6.4 0.05 0.10 0.10 93 1006.2
20260504173218 10 180 0.0 4.8 0.05 0.10 0.10 92 1006.3
20260504172715 10 167 3.2 3.2 0.05 0.10 0.10 92 1006.3
20260504172211 10 0 0.0 3.2 0.05 0.10 0.10 91 1006.3
20260504171708 10 93 1.6 8.0 0.05 0.08 0.08 90 1006.3
20260504171205 10 49 1.6 6.4 0.13 0.08 0.08 91 1006.2
20260504170701 10 278 3.2 4.8 0.18 0.08 0.08 89 1006.4
20260504170159 11 279 4.8 4.8 0.18 0.05 0.05 87 1006.3
20260504160118 13 220 9.7 12.9 0.00 0.00 0.00 61 1005.1
20260504151045 12 121 1.6 9.7 0.00 0.00 0.00 60 1005.9
20260504150543 12 132 3.2 8.0 0.00 0.00 0.00 61 1006.0
20260504141009 11 79 0.0 9.7 0.00 0.00 0.00 57 1006.8
20260504140505 10 74 4.8 8.0 0.00 0.00 0.00 59 1006.8
20260504130430 9 267 3.2 3.2 0.00 0.00 0.00 59 1008.0
20260504110316 4 109 3.2 3.2 0.00 0.00 0.00 82 1008.2
20260504100234 -1 185 3.2 4.8 0.00 0.00 0.00 98 1007.9
20260504081627 0 130 1.6 4.8 0.00 0.00 0.00 93 1007.7
20260504081123 0 156 0.0 1.6 0.00 0.00 0.00 94 1007.6
20260504080620 0 44 0.0 3.2 0.00 0.00 0.00 96 1007.6
20260504080116 0 228 0.0 0.0 0.00 0.00 0.00 96 1007.6
20260504050432 1 31 0.0 3.2 0.00 0.00 0.00 89 1007.3
20260504045930 1 185 0.0 1.6 0.00 0.00 0.00 89 1007.2
20260504045425 1 132 1.6 4.8 0.00 0.00 0.00 89 1007.3
20260504044921 1 44 3.2 3.2 0.00 0.00 0.00 90 1007.3
20260504044420 1 17 1.6 3.2 0.00 0.00 0.00 91 1007.1
20260504043917 1 35 3.2 3.2 0.00 0.00 0.00 91 1007.2
20260504043413 1 320 0.0 3.2 0.00 0.00 0.00 91 1007.1
20260504042911 1 78 1.6 3.2 0.00 0.00 0.00 90 1007.2
20260504042408 1 254 0.0 1.6 0.00 0.00 0.00 89 1007.2
20260504041904 2 224 0.0 3.2 0.00 0.00 0.00 84 1007.3
20260504041400 1 320 3.2 3.2 0.00 0.00 0.00 85 1007.4
20260504040856 2 327 0.0 1.6 0.00 0.00 0.00 84 1007.1
20260504040354 2 272 0.0 1.6 0.00 0.00 0.00 82 1007.1
20260504035849 2 21 3.2 3.2 0.00 0.71 0.71 81 1007.0
20260504035348 2 10 0.0 3.2 0.00 0.71 0.71 81 1007.0
20260504034844 2 24 1.6 3.2 0.00 0.71 0.71 80 1007.2
20260504034341 2 44 0.0 3.2 0.00 0.71 0.71 80 1007.0
20260504033838 2 27 1.6 3.2 0.00 0.71 0.71 79 1007.0
20260504033337 2 77 0.0 1.6 0.00 0.71 0.71 82 1006.8
20260504032832 3 315 0.0 3.2 0.00 0.71 0.71 81 1006.9
20260504032330 3 48 0.0 0.0 0.00 0.71 0.71 79 1006.7
20260504031827 3 243 0.0 1.6 0.00 0.71 0.71 75 1006.8
20260504031324 4 304 0.0 3.2 0.00 0.71 0.71 73 1006.9
20260504030820 5 283 0.0 3.2 0.00 0.71 0.71 68 1006.9
20260504030318 5 208 0.0 3.2 0.00 0.71 0.71 65 1006.6
20260504025814 5 330 0.0 9.7 0.00 0.71 0.71 65 1006.6
20260504025311 5 288 1.6 3.2 0.00 0.71 0.71 67 1006.6
20260504024807 5 257 0.0 6.4 0.00 0.71 0.71 66 1006.5
20260504024304 5 22 0.0 3.2 0.00 0.71 0.71 67 1006.7
20260504023800 5 107 0.0 1.6 0.00 0.71 0.71 64 1006.6
20260504023257 5 3 1.6 3.2 0.00 0.71 0.71 65 1006.6
20260504022753 5 298 3.2 4.8 0.00 0.71 0.71 64 1006.5
20260504022249 5 355 3.2 4.8 0.00 0.71 0.71 66 1006.6
20260504021746 5 294 4.8 6.4 0.00 0.71 0.71 67 1006.6
20260504021244 5 315 0.0 1.6 0.00 0.71 0.71 70 1006.4
20260504020741 5 64 1.6 1.6 0.00 0.71 0.71 68 1006.5
20260504020237 5 11 1.6 3.2 0.00 0.71 0.71 63 1006.6
20260504015733 5 24 3.2 3.2 0.00 0.71 0.71 65 1006.5
20260504015230 6 329 1.6 6.4 0.00 0.71 0.71 60 1006.4
20260504014725 6 308 0.0 3.2 0.00 0.71 0.71 61 1006.4
20260504014222 6 297 0.0 16.1 0.00 0.71 0.71 57 1006.2
20260504013720 6 304 0.0 4.8 0.00 0.71 0.71 58 1006.4
20260504013218 6 291 0.0 3.2 0.00 0.71 0.71 57 1006.2
20260504012714 7 248 1.6 4.8 0.00 0.71 0.71 55 1006.4
20260504012212 7 10 1.6 12.9 0.00 0.71 0.71 54 1006.3
20260504011709 7 203 3.2 11.3 0.00 0.71 0.71 54 1006.2
20260504011205 7 354 6.4 11.3 0.00 0.71 0.71 55 1006.1
20260504010701 7 131 0.0 3.2 0.00 0.71 0.71 55 1005.9
20260504010157 7 38 4.8 6.4 0.00 0.71 0.71 54 1005.8
20260504005654 7 9 3.2 14.5 0.00 0.71 0.71 52 1005.8
20260504005151 7 280 3.2 8.0 0.00 0.71 0.71 54 1005.6
20260504004649 7 321 3.2 6.4 0.00 0.71 0.71 54 1005.7
20260504004146 7 340 0.0 3.2 0.00 0.71 0.71 53 1005.6
20260504003642 7 271 3.2 4.8 0.00 0.71 0.71 53 1005.4
20260504003139 7 25 4.8 4.8 0.00 0.71 0.71 53 1005.5
20260504002635 7 332 0.0 6.4 0.00 0.71 0.71 52 1005.5
20260504002133 7 28 4.8 9.7 0.00 0.71 0.71 52 1005.4
20260504001631 7 42 3.2 9.7 0.00 0.71 0.71 51 1005.3
20260504001126 7 350 4.8 9.7 0.00 0.71 0.71 52 1005.3
20260504000624 8 358 8.0 9.7 0.00 0.71 0.71 50 1004.9
20260504000121 8 44 3.2 9.7 0.00 0.71 0.71 50 1005.0
20260503235620 8 5 3.2 9.7 0.00 0.71 0.71 50 1004.9
20260503235116 8 24 3.2 22.5 0.00 0.71 0.71 51 1004.9
20260503234614 8 286 6.4 6.4 0.00 0.71 0.71 50 1004.8
20260503234112 8 3 6.4 25.7 0.00 0.71 0.71 48 1004.6
20260503233608 8 332 11.3 22.5 0.00 0.71 0.71 49 1004.8
20260503233104 8 344 8.0 19.3 0.00 0.71 0.71 48 1004.7
20260503232601 8 281 4.8 17.7 0.00 0.71 0.71 49 1004.6